When you browse on this site, cookies collect data to enhance your experience and personalize the content and advertising you see.
Visit our Privacy Policy to learn more. By continuing to use the site, you agree to this use of cookies and data.
  • In Lithuania
  • List of Countries
  • For 7 days
  • Water Temperature
  • Weather Map
  • Weather Widgets
  • user-avatar
    Login

    Hourly Weather Sidi Bu-l-Abbas

    Today, 10 April, Friday

    Time Temperature Precipitation Wind Pressure Humidity
    00:00 +15°C° 0 mm 2 mps 722 mmHg 93%
    01:00 +14°C° 0 mm 2 mps 722 mmHg 93%
    02:00 +14°C° 0 mm 2 mps 721 mmHg 93%
    03:00 +14°C° 0 mm 2 mps 721 mmHg 93%
    04:00 +14°C° 0 mm 1 mps 721 mmHg 93%
    05:00 +14°C° 0 mm 1 mps 721 mmHg 92%
    06:00 +14°C° 0 mm 2 mps 722 mmHg 92%
    07:00 +14°C° 0 mm 2 mps 722 mmHg 89%
    08:00 +14°C° 0 mm 2 mps 722 mmHg 87%
    09:00 +15°C° 0 mm 2 mps 722 mmHg 85%
    10:00 +14°C° 0 mm 3 mps 722 mmHg 82%
    11:00 +14°C° 0 mm 3 mps 723 mmHg 80%
    12:00 +17°C° 0 mm 3 mps 723 mmHg 78%
    13:00 +17°C° 0 mm 3 mps 722 mmHg 73%
    14:00 +18°C° 0 mm 3 mps 722 mmHg 69%
    15:00 +18°C° 0 mm 4 mps 722 mmHg 65%
    16:00 +17°C° 0 mm 3 mps 722 mmHg 68%
    17:00 +17°C° 0 mm 3 mps 722 mmHg 70%
    18:00 +16°C° 0 mm 3 mps 722 mmHg 72%
    19:00 +15°C° 0 mm 2 mps 722 mmHg 78%
    20:00 +14°C° 0 mm 2 mps 723 mmHg 83%
    21:00 +12°C° 0 mm 1 mps 723 mmHg 89%
    22:00 +12°C° 0 mm 1 mps 723 mmHg 90%
    23:00 +12°C° 0 mm 1 mps 723 mmHg 92%

    Tomorrow, 11 April, Saturday

    Time Temperature Precipitation Wind Pressure Humidity
    00:00 +10°C° 0 mm 0 mps 723 mmHg 93%
    01:00 +10°C° 0 mm 0 mps 722 mmHg 93%
    02:00 +10°C° 0 mm 0 mps 722 mmHg 93%
    03:00 +9°C° 0 mm 0 mps 722 mmHg 93%
    04:00 +11°C° 0 mm 1 mps 722 mmHg 93%
    05:00 +11°C° 0 mm 1 mps 722 mmHg 93%
    06:00 +11°C° 0 mm 1 mps 722 mmHg 93%
    07:00 +13°C° 0 mm 1 mps 722 mmHg 85%
    08:00 +15°C° 0 mm 1 mps 722 mmHg 77%
    09:00 +16°C° 0 mm 1 mps 723 mmHg 69%
    10:00 +18°C° 0 mm 2 mps 723 mmHg 63%
    11:00 +19°C° 0 mm 2 mps 723 mmHg 56%
    12:00 +21°C° 0 mm 3 mps 723 mmHg 50%
    13:00 +21°C° 0 mm 3 mps 722 mmHg 50%
    14:00 +21°C° 0 mm 3 mps 721 mmHg 51%
    15:00 +22°C° 0 mm 3 mps 721 mmHg 51%
    16:00 +20°C° 0.2 mm 3 mps 720 mmHg 60%
    17:00 +19°C° 0.2 mm 4 mps 720 mmHg 69%
    18:00 +17°C° 0.2 mm 4 mps 720 mmHg 77%
    19:00 +17°C° 0.6 mm 3 mps 720 mmHg 81%
    20:00 +16°C° 0.6 mm 2 mps 720 mmHg 84%
    21:00 +16°C° 0.6 mm 1 mps 721 mmHg 88%
    22:00 +16°C° 2.8 mm 1 mps 720 mmHg 90%
    23:00 +15°C° 2.8 mm 1 mps 720 mmHg 92%

    Day after tomorrow, 12 April, Sunday

    Time Temperature Precipitation Wind Pressure Humidity
    00:00 +15°C° 2.8 mm 2 mps 720 mmHg 94%
    01:00 +15°C° 0.6 mm 1 mps 720 mmHg 94%
    02:00 +15°C° 0.6 mm 1 mps 720 mmHg 94%
    03:00 +15°C° 0.6 mm 1 mps 719 mmHg 94%
    04:00 +15°C° 0.1 mm 1 mps 719 mmHg 95%
    05:00 +15°C° 0.1 mm 1 mps 719 mmHg 95%
    06:00 +15°C° 0.1 mm 2 mps 719 mmHg 95%
    07:00 +16°C° 0 mm 2 mps 719 mmHg 88%
    08:00 +18°C° 0 mm 2 mps 720 mmHg 80%
    09:00 +19°C° 0 mm 3 mps 720 mmHg 72%
    10:00 +21°C° 0 mm 3 mps 719 mmHg 67%
    11:00 +22°C° 0 mm 3 mps 719 mmHg 61%
    12:00 +23°C° 0 mm 4 mps 719 mmHg 56%
    13:00 +23°C° 0 mm 4 mps 718 mmHg 59%
    14:00 +23°C° 0 mm 4 mps 718 mmHg 62%
    15:00 +22°C° 0 mm 5 mps 717 mmHg 65%
    16:00 +21°C° 0.1 mm 4 mps 717 mmHg 71%
    17:00 +19°C° 0.1 mm 4 mps 716 mmHg 78%
    18:00 +18°C° 0.1 mm 3 mps 716 mmHg 85%
    19:00 +17°C° 0.4 mm 3 mps 715 mmHg 87%
    20:00 +17°C° 0.4 mm 2 mps 715 mmHg 90%
    21:00 +16°C° 0.4 mm 2 mps 715 mmHg 93%
    22:00 +16°C° 0 mm 2 mps 715 mmHg 93%
    23:00 +16°C° 0 mm 2 mps 715 mmHg 94%

    13 April, Monday

    Time Temperature Precipitation Wind Pressure Humidity
    00:00 +15°C° 0 mm 2 mps 714 mmHg 94%
    01:00 +15°C° 0 mm 2 mps 714 mmHg 94%
    02:00 +15°C° 0 mm 2 mps 714 mmHg 94%
    03:00 +15°C° 0 mm 2 mps 713 mmHg 94%
    04:00 +15°C° 0 mm 2 mps 713 mmHg 94%
    05:00 +15°C° 0 mm 1 mps 713 mmHg 94%
    06:00 +15°C° 0 mm 1 mps 713 mmHg 93%
    07:00 +16°C° 0 mm 1 mps 713 mmHg 89%
    08:00 +18°C° 0 mm 1 mps 713 mmHg 85%
    09:00 +17°C° 0 mm 2 mps 713 mmHg 81%
    10:00 +18°C° 0.1 mm 2 mps 713 mmHg 79%
    11:00 +18°C° 0.1 mm 3 mps 713 mmHg 77%
    12:00 +19°C° 0.1 mm 4 mps 713 mmHg 75%
    13:00 +19°C° 0 mm 4 mps 713 mmHg 75%
    14:00 +19°C° 0 mm 4 mps 713 mmHg 74%
    15:00 +19°C° 0 mm 4 mps 713 mmHg 74%
    16:00 +18°C° 0 mm 3 mps 713 mmHg 75%
    17:00 +18°C° 0 mm 3 mps 713 mmHg 75%
    18:00 +18°C° 0 mm 2 mps 713 mmHg 76%
    19:00 +17°C° 0 mm 2 mps 714 mmHg 79%
    20:00 +16°C° 0 mm 2 mps 714 mmHg 83%
    21:00 +16°C° 0 mm 2 mps 714 mmHg 86%
    22:00 +16°C° 0 mm 1 mps 714 mmHg 86%
    23:00 +15°C° 0 mm 1 mps 714 mmHg 87%

    14 April, Tuesday

    Time Temperature Precipitation Wind Pressure Humidity
    00:00 +14°C° 0 mm 0 mps 714 mmHg 87%
    01:00 +15°C° 0 mm 1 mps 714 mmHg 89%
    02:00 +15°C° 0 mm 1 mps 714 mmHg 90%
    03:00 +14°C° 0 mm 1 mps 714 mmHg 91%
    04:00 +14°C° 0 mm 1 mps 714 mmHg 92%
    05:00 +14°C° 0 mm 1 mps 714 mmHg 93%
    06:00 +14°C° 0 mm 1 mps 714 mmHg 94%
    07:00 +15°C° 0 mm 1 mps 714 mmHg 87%
    08:00 +16°C° 0 mm 1 mps 714 mmHg 81%
    09:00 +18°C° 0 mm 2 mps 714 mmHg 74%
    10:00 +18°C° 0 mm 2 mps 714 mmHg 71%
    11:00 +19°C° 0 mm 3 mps 714 mmHg 68%
    12:00 +20°C° 0 mm 4 mps 714 mmHg 65%
    13:00 +20°C° 0 mm 4 mps 714 mmHg 66%
    14:00 +20°C° 0 mm 5 mps 713 mmHg 66%
    15:00 +20°C° 0 mm 6 mps 712 mmHg 67%
    16:00 +19°C° 0.1 mm 5 mps 712 mmHg 72%
    17:00 +16°C° 0.1 mm 5 mps 712 mmHg 77%
    18:00 +15°C° 0.1 mm 4 mps 712 mmHg 82%
    19:00 +16°C° 0 mm 3 mps 713 mmHg 84%
    20:00 +15°C° 0 mm 2 mps 713 mmHg 85%
    21:00 +15°C° 0 mm 2 mps 714 mmHg 87%
    22:00 +14°C° 0 mm 1 mps 714 mmHg 87%
    23:00 +14°C° 0 mm 1 mps 714 mmHg 88%

    15 April, Wednesday

    Time Temperature Precipitation Wind Pressure Humidity
    00:00 +14°C° 0 mm 1 mps 715 mmHg 88%
    01:00 +14°C° 0 mm 1 mps 715 mmHg 88%
    02:00 +13°C° 0 mm 1 mps 714 mmHg 87%
    03:00 +13°C° 0 mm 1 mps 714 mmHg 87%
    04:00 +13°C° 0 mm 1 mps 715 mmHg 83%
    05:00 +14°C° 0 mm 1 mps 715 mmHg 80%
    06:00 +14°C° 0 mm 2 mps 715 mmHg 76%
    07:00 +14°C° 0 mm 3 mps 716 mmHg 69%
    08:00 +16°C° 0 mm 5 mps 716 mmHg 62%
    09:00 +19°C° 0 mm 6 mps 717 mmHg 54%
    10:00 +19°C° 0 mm 5 mps 717 mmHg 52%
    11:00 +20°C° 0 mm 5 mps 717 mmHg 51%
    12:00 +20°C° 0 mm 5 mps 718 mmHg 49%
    13:00 +20°C° 0 mm 4 mps 717 mmHg 49%
    14:00 +20°C° 0 mm 3 mps 717 mmHg 49%
    15:00 +21°C° 0 mm 3 mps 717 mmHg 49%
    16:00 +20°C° 0 mm 3 mps 717 mmHg 54%
    17:00 +19°C° 0 mm 2 mps 717 mmHg 58%
    18:00 +18°C° 0 mm 2 mps 717 mmHg 63%
    19:00 +17°C° 0 mm 2 mps 717 mmHg 66%
    20:00 +16°C° 0 mm 2 mps 717 mmHg 70%
    21:00 +15°C° 0 mm 1 mps 718 mmHg 73%
    22:00 +15°C° 0 mm 1 mps 718 mmHg 74%
    23:00 +14°C° 0 mm 1 mps 718 mmHg 75%
    Show more